Regional Weather Roundup
Issued by NWS

Home | Current Version | Previous Version | Graphics & Text | Print | Product List | Glossary On
Versions: 1 2 3 4 5 6 7 8 9 10 11 12 13 14 15 16 17 18 19 20 21 22 23 24 25 26 27 28 29 30 31 32 33 34 35 36 37 38 39 40 41 42 43 44 45 46 47 48 49 50
677
ASUS43 KOAX 072310
RWRNE

WEATHER ROUNDUP FOR NEBRASKA
NATIONAL WEATHER SERVICE OMAHA NE
500 PM CST SUN FEB 07 2016

NOTES: SATELLITE DATA IS BEING USED TO AUGMENT CLOUD COVER ABOVE
       12000 FEET.
       "FAIR" INDICATES FEW OR NO CLOUDS BELOW 12,000 FEET WITH NO
       SIGNIFICANT WEATHER AND/OR OBSTRUCTIONS TO VISIBILITY.

  * THESE STATIONS DO NOT REPORT WEATHER SUCH AS RAIN...SNOW OR FOG.

NEZ001>004-019>022-054>056-080000-
NEBRASKA PANHANDLE

CITY           SKY/WX    TMP DP  RH WIND       PRES   REMARKS
SCOTTSBLUFF    CLOUDY    33  16  49 NW28      30.31R WCI  20
ALLIANCE       SUNNY     32  15  49 NW25G36   30.23R WCI  19
CHADRON        SUNNY     37  14  38 NW22G38   30.28R WCI  26
KIMBALL        CLOUDY    29  17  59 NW23G29   30.29R WCI  16
SIDNEY         PTSUNNY   29  18  63 NW18      30.28R WCI  16
$$

NEZ057>060-069>072-079>082-080000-
SOUTHWEST NEBRASKA

CITY           SKY/WX    TMP DP  RH WIND       PRES   REMARKS
NORTH PLATTE   SUNNY     38  18  44 NW21G30   30.16R WCI  28
IMPERIAL       SUNNY     35  18  49 NW25G36   30.24R WCI  23
LEXINGTON      SUNNY     39  15  37 NW31G38   30.13S WCI  27
MCCOOK         SUNNY     38  20  48 NW26G37   30.20S WCI  26
OGALLALA       SUNNY     35  15  44 NW26G32   30.22S WCI  22
$$

NEZ005>010-023>029-035>040-094-080000-
NORTH CENTRAL NEBRASKA

CITY           SKY/WX    TMP DP  RH WIND       PRES   REMARKS
VALENTINE      CLEAR     37  16  42 NW30G59   30.09R WCI  24
AINSWORTH      CLEAR     38  16  40 NW32G47   30.07R WCI  25
BROKEN BOW     CLEAR     39  14  36 NW38G48   30.07R WCI  26
O`NEILL        CLOUDY    37  23  56 NW33G41   30.02R WCI  24
ORD            MOCLDY    38  20  48 NW22G40   30.04R WCI  27
THEDFORD       CLEAR     39  12  33 NW33G56   30.11R WCI  27
$$

NEZ041-046>049-061>064-073>077-083>087-080000-
SOUTH CENTRAL NEBRASKA

CITY           SKY/WX    TMP DP  RH WIND       PRES   REMARKS
GRAND ISLAND   CLOUDY    39  20  46 NW26G36   30.06S WCI  28
AURORA         CLOUDY    38  23  55 NW30G36   30.05S WCI  25
HASTINGS       PTCLDY    39  20  46 NW22G31   30.07F WCI  29
HEBRON         CLOUDY    40  23  51 NW17G25   30.08S WCI  31
HOLDREGE       CLEAR     38  20  50 NW22      30.11S WCI  27
YORK           CLOUDY    36  28  75 NW18      30.04F WCI  25
$$

NEZ011>018-030>034-042>045-080000-
NORTHEAST NEBRASKA

CITY           SKY/WX    TMP DP  RH WIND       PRES   REMARKS
NORFOLK        FLURRIES  36  27  69 NW25G36   29.96R WCI  24
ALBION         CLOUDY    37  26  65 NW29G40   29.99F WCI  24
BLAIR          CLOUDY    35  31  87 W17G28    29.95S WCI  24
COLUMBUS *     CLOUDY    34  23  64 W17G23    30.01S WCI  23
FREMONT        CLOUDY    34  29  82 W22G31    29.99R WCI  22
TEKAMAH        FLURRIES  35  30  82 W28G36    29.94S WCI  22
WAYNE          LGT SNOW  32  31  93 NW26G33   29.96R VSB 3/4 WCI  19
$$

NEZ050>053-065>068-078-088>093-080000-
SOUTHEAST NEBRASKA

CITY           SKY/WX    TMP DP  RH WIND       PRES   REMARKS
LINCOLN        CLOUDY    37  28  70 NW25G33   30.04R WCI  25
OMAHA EPPLEY   FLURRIES  36  30  79 W26G33    29.95F WCI  24
BEATRICE       CLOUDY    37  28  69 NW35G49   30.07R WCI  24
FALLS CITY     CLOUDY    44  22  41 NW29G41   30.00R
NEBRASKA CITY  CLOUDY    37  26  65 NW22G32   30.00R WCI  26
PLATTSMOUTH    CLOUDY    36  28  73 W28G39    29.97S WCI  24
$$

NEZ044-045-051>053-067-080000-
OMAHA AREA

CITY           SKY/WX    TMP DP  RH WIND       PRES   REMARKS
OMAHA EPPLEY   FLURRIES  36  30  79 W26G33    29.95F WCI  24
BLAIR          CLOUDY    35  31  87 W17G28    29.95S WCI  24
FREMONT        CLOUDY    34  29  82 W22G31    29.99R WCI  22
MILLARD        DRIZZLE   37  31  79 W20G30    29.97F WCI  26
OFFUTT AFB     FLURRIES  37  30  75 NW26      29.95F WCI  26
PLATTSMOUTH    CLOUDY    36  28  73 W28G39    29.97S WCI  24
WAHOO          DRIZZLE   35  30  82 W24G35    29.99S WCI  23
$$




USA.gov is the U.S. government's official web portal to all federal, state and local government web resources and services.